Find Starlink 30418

NORAD ID: 57829 Int'l Des: 2023-138 Owner: SPXS Country: US Constellation: starlink operational
LEOCIRCULAR

当前视图

正在加载3D地球...

About Starlink 30418

Starlink 30418 (NORAD 57829) is a starlink constellation satellite (v2 mini) launched Sep 9, 2023 by SPXS of US. It operates in LEO, CIRCULAR orbit with a mass of 730.00 kg.

关于 Starlink 30418

正在加载描述...

即将过境

Passes for default location (London). Set your location on the main map for personalized predictions.

高度历史

Loading altitude history...

两行轨道根数

1 57829U 23138X 26170.97419983 .00000400 00000-0 24072-4 0 9997
2 57829 43.0027 16.3406 0001634 268.3095 91.7569 15.27582184154219
Epoch: Jun 19, 2026 • Age: 26 hours

当前状态

高度 486.8 km
速度 7.62 km/s
星下点 -19.46°S, 77.92°W
发射日期 Sep 9, 2023
运行时间 2.7 years
类型 internet

技术详情

分类 Payload
质量 730.00 kg
干质量 700.00 kg
总质量 730.00 kg
长度 0.30 m
直径 4.10 m
跨度 29.00 m
形状 Box + pan
制造商 SPXS
平台类型 Starlink V2M
阶段状态 In Orbit
所有者/国家 SPXS/US

Most Searched